Flag for Belgium Weather past 2 weeks in Namur, Belgium

Now
59 °F

Passing clouds.


Feels Like: 57 °F
Forecast: 51 / 62 °F
Wind: 13 mph from Southwest

Location: Charleroi / Gosselies

Current Time: Aug 22, 2014 at 7:39:00 PM

Latest Report: Aug 22, 2014 at 6:50 PM


Visibility: N/A

Pressure: 29.89 "Hg

Humidity: 77%

Dew point: 52 °F

Location of NamurLocation

Historic Weather in Namur — Graph

°F

Namur temperature yesterday

Maximum temperature yesterday: 63 °F (at 12:50 PM)
Minimum temperature yesterday: 46 °F (at 6:20 AM)
Average temperature yesterday: 55 °F

Past Weeks' High & Low Weather Summary

 TemperatureHumidityPressure
High75 °F (Aug 7, 6:20 PM)94% (Aug 8, 4:50 AM)30.18 "Hg (Aug 8, 4:50 AM)
Low46 °F (Aug 20, 4:20 AM)43% (Aug 18, 2:20 PM)29.53 "Hg (Aug 10, 5:50 PM)
Average59 °F78%29.90 "Hg
* Reported Aug 7 6:20 PM — Aug 22 6:20 PM, Namur, Weather by CustomWeather, © 2014

Note: Actual official high and low records may vary slightly from our data, if they occured in-between our weather recording intervals... More about our weather records

Advertising

Namur weather history for previous 24 hours

 ConditionsComfort  
Time TempWeatherWind HumidityBarometerVisibility
6:20 PM
Aug 22
59 °FPassing clouds.14 mph82%29.92 "HgN/A
5:50 PM57 °FSprinkles. Scattered clouds.16 mph82%29.92 "HgN/A
5:20 PM59 °FScattered clouds.13 mph82%29.89 "HgN/A
4:50 PM57 °FRain showers. Scattered clouds.17 mph88%29.92 "Hg4 mi
4:20 PM63 °FScattered clouds.15 mph59%29.89 "HgN/A
3:50 PM63 °FSprinkles. Scattered clouds.20 mph59%29.89 "HgN/A
3:20 PM63 °FPassing clouds.18 mph56%29.89 "HgN/A
2:50 PM64 °FPassing clouds.17 mph52%29.89 "HgN/A
2:20 PM63 °FPassing clouds.18 mph52%29.89 "HgN/A
1:50 PM63 °FPassing clouds.20 mph52%29.89 "HgN/A
1:20 PM64 °FPassing clouds.21 mph49%29.89 "HgN/A
12:50 PM63 °FPassing clouds.17 mph52%29.92 "HgN/A
12:20 PM63 °FPassing clouds.18 mph52%29.92 "HgN/A
11:50 AM63 °FPassing clouds.18 mph49%29.92 "HgN/A
11:20 AM63 °FPassing clouds.15 mph49%29.92 "HgN/A
10:50 AM61 °FSunny.14 mph59%29.92 "Hg10 mi
10:20 AM57 °FSunny.13 mph72%29.92 "Hg10 mi
9:50 AM57 °FSunny.13 mph67%29.92 "Hg10 mi
9:20 AM55 °FSunny.12 mph72%29.92 "Hg10 mi
8:50 AM55 °FSunny.12 mph72%29.92 "Hg10 mi
8:20 AM54 °FSunny.9 mph77%29.92 "Hg10 mi
7:50 AM54 °FSunny.12 mph77%29.92 "Hg10 mi
7:20 AM54 °FClear.10 mph72%29.92 "Hg10 mi
6:50 AM54 °FClear.9 mph72%29.92 "Hg10 mi
6:20 AM52 °FClear.6 mph82%29.92 "Hg10 mi
5:50 AM52 °FClear.7 mph82%29.92 "Hg10 mi
5:20 AM52 °FClear.7 mph82%29.92 "Hg10 mi
4:50 AM52 °FClear.6 mph82%29.95 "Hg10 mi
4:20 AM52 °FClear.7 mph82%29.95 "Hg10 mi
3:50 AM52 °FClear.6 mph82%29.95 "Hg10 mi
3:20 AM52 °FClear.6 mph82%29.95 "Hg10 mi
2:50 AM52 °FClear.6 mph82%29.98 "Hg10 mi
2:20 AM52 °FClear.6 mph82%29.98 "Hg10 mi
1:50 AM54 °FClear.6 mph77%29.98 "Hg10 mi
1:20 AM54 °FClear.6 mph77%29.98 "Hg10 mi
12:50 AM54 °FClear.6 mph77%29.98 "Hg10 mi
12:20 AM54 °FClear.6 mph77%29.98 "Hg10 mi
11:50 PM
Aug 21
55 °FClear.6 mph72%30.01 "Hg10 mi
11:20 PM55 °FClear.6 mph72%30.01 "Hg10 mi
10:50 PM55 °FClear.6 mph72%30.01 "Hg10 mi
10:20 PM55 °FClear.7 mph72%30.01 "Hg10 mi
9:50 PM55 °FClear.7 mph67%30.01 "Hg10 mi
9:20 PM57 °FSunny.8 mph63%30.01 "Hg10 mi
8:50 PM59 °FPassing clouds.8 mph59%29.98 "HgN/A
8:20 PM59 °FPassing clouds.9 mph63%29.98 "HgN/A
7:50 PM61 °FPassing clouds.9 mph59%29.98 "HgN/A
7:20 PM61 °FPassing clouds.9 mph59%30.01 "HgN/A
Weather by CustomWeather, © 2014

See weather overviewHow to use our weather pages